Location: Les Moreaux
(47.2278°N, 1.4966°E)
Time: 18:09:43
(UTC+00:00)

Meteor 2-6 Rocket - Pass Details

Date: 19 May 2025
Orbit: 804 x 914 km, 81.3° (Epoch: 22 June)

Event Time Altitude Azimuth Distance (km) Brightness Sun altitude
Exits shadow 21:30:08 21° 169° (S) 1,897 5.5 -15.8°
Maximum altitude 21:34:02 61° 96° (E) 1,005 4.4 -16.1°
Drops below altitude 10° 21:39:41 10° 18° (NNE) 2,522 7.2 -16.6°
Sets 21:42:07 0° 15° (NNE) 3,447 8.1 -16.9°
